DateTimeUTC,F1_A11,F1_S11,BsB_S11,BsG_S11,BsR_S11,BbsB_S11,BbsG_S11,BbsR_S11,BaB_A11,BaG_A11,BaR_A11,Tu_S11,T_S11,Uu_S11,U_S11,P_S11,T1_A11
2021-09-03T05:00:00Z,00000200,20000000,,,,,,,0000.25,0000.19,-000.10,19.6,26.3,08.1,05.4,0672.3,31.1
2021-09-03T05:01:00Z,00000200,20000000,,,,,,,-000.06,-000.30,0000.28,19.6,26.3,08.1,05.4,0672.3,31.1
2021-09-03T05:02:00Z,00000200,20000000,,,,,,,-000.07,0000.16,-000.28,19.6,26.3,08.1,05.4,0672.3,31.1
2021-09-03T05:03:00Z,00000200,60000000,,,,,,,-000.33,0000.16,0000.15,19.6,26.3,08.1,05.4,0672.3,31.1
2021-09-03T05:04:00Z,00000200,40000000,0000.66,0000.20,0000.27,-000.28,0000.09,0000.05,0000.29,-000.03,0000.05,19.8,26.2,08.1,05.5,0673.2,31.1
2021-09-03T05:05:00Z,00000200,00000000,0000.18,0000.54,-000.07,0000.23,-000.22,-000.01,0000.12,-000.11,0000.01,19.8,26.2,08.2,05.6,0673.2,31.1
2021-09-03T05:06:00Z,00000200,00000000,-000.57,0000.61,0000.58,0000.04,-000.01,0000.07,0000.16,-000.01,0000.09,19.9,26.1,08.3,05.6,0673.2,31.1
2021-09-03T05:07:00Z,00000200,00000000,0000.07,0000.23,0000.04,0000.34,-000.07,0000.02,-000.07,0000.19,-000.27,19.9,26.1,08.3,05.6,0673.2,31.1
2021-09-03T05:08:00Z,00000200,00000000,-000.10,0000.19,0000.02,0000.32,0000.02,-000.12,-000.08,-000.30,0000.06,19.9,26.1,08.4,05.8,0673.2,31.1
2021-09-03T05:09:00Z,00000200,00000000,0000.08,0000.51,0000.65,0000.43,0000.15,0000.22,0000.07,0000.09,0000.15,19.9,26.1,08.4,05.7,0673.2,31.1
2021-09-03T05:10:00Z,00000200,00000000,0000.63,0000.64,-000.21,0000.14,-000.03,0000.43,0000.23,0000.41,0000.23,19.9,26.1,08.5,05.8,0673.2,31.1
2021-09-03T05:11:00Z,00000200,00000000,0001.33,0000.58,-000.07,0000.76,0000.23,-000.11,0000.08,-000.19,-000.11,19.9,26.1,08.5,05.8,0673.2,31.1
2021-09-03T05:12:00Z,00000200,00000000,-000.16,0000.41,-000.11,0000.15,0000.09,-000.10,-000.09,0000.13,0000.20,19.9,26.1,08.5,05.8,0673.1,31.1
2021-09-03T05:13:00Z,00000200,00000000,0000.43,0000.66,0000.10,0000.51,0000.26,-000.17,0000.07,-000.22,-000.28,19.9,26.1,08.5,05.8,0673.2,31.1
2021-09-03T05:14:00Z,00000200,00000000,-000.31,0000.27,-000.00,0000.22,0000.07,-000.30,0000.16,-000.03,0000.04,19.9,26.1,08.6,05.9,0673.1,31.1
2021-09-03T05:15:00Z,00000200,00000000,-000.01,0000.26,0000.17,-000.10,0000.11,0000.08,-000.22,0000.25,0000.32,19.9,26.1,08.6,05.9,0673.2,31.1
2021-09-03T05:16:00Z,00000200,00000000,-000.16,0000.13,0000.17,0000.31,-000.04,0000.07,0000.01,-000.02,-000.26,19.9,26.1,08.6,05.9,0673.1,31.2
2021-09-03T05:17:00Z,00000200,00000000,0000.42,0000.34,0000.09,-000.19,0000.27,0000.08,0000.32,0000.42,0000.19,19.9,26.1,08.7,06.0,0673.1,31.1
2021-09-03T05:18:00Z,00000200,00000000,-000.23,0000.48,0000.19,-000.29,-000.24,0000.11,-000.24,-000.26,0000.02,19.9,26.1,08.7,06.0,0673.1,31.1
2021-09-03T05:19:00Z,00000200,00000000,0000.25,0000.17,0000.22,0000.08,-000.04,0000.06,0000.32,0000.10,0000.17,19.9,26.1,08.8,06.1,0673.1,31.1
2021-09-03T05:20:00Z,00000200,00000000,0000.08,0000.74,0000.03,0000.06,0000.28,0000.16,-000.18,-000.23,-000.14,19.9,26.1,08.8,06.0,0673.1,31.1
2021-09-03T05:21:00Z,00000200,00000000,0000.68,0000.57,0000.39,-000.05,0000.35,0000.18,0000.11,0000.18,-000.05,19.9,26.1,08.9,06.1,0673.1,31.1
2021-09-03T05:22:00Z,00000200,00000000,-000.07,0000.49,0000.44,0000.10,0000.35,0000.07,0000.12,-000.00,-000.19,19.9,26.1,08.7,06.0,0673.1,31.1
2021-09-03T05:23:00Z,00000200,00000000,-000.34,0000.53,0000.16,-000.28,0000.06,-000.04,0000.16,0000.13,0000.40,19.9,26.1,08.9,06.1,0673.1,31.1
2021-09-03T05:24:00Z,00000200,00000000,-000.29,0000.69,0000.16,0000.11,0000.03,-000.20,-000.36,0000.24,-000.05,19.9,26.1,08.8,06.1,0673.1,31.1
2021-09-03T05:25:00Z,00000200,00000000,0000.78,0000.51,0000.02,-000.70,0000.30,0000.18,0000.37,0000.16,-000.08,19.9,26.1,08.9,06.1,0673.1,31.1
2021-09-03T05:26:00Z,00000200,00000000,-000.41,0000.28,-000.00,0000.35,0000.08,-000.05,-000.02,-000.41,0000.05,19.9,26.1,08.8,06.1,0673.1,31.1
2021-09-03T05:27:00Z,00000200,00000000,-000.41,0000.38,0000.19,-000.49,-000.09,0000.20,-000.32,0000.07,0000.01,19.9,26.1,08.9,06.1,0673.1,31.1
2021-09-03T05:28:00Z,00000200,00000000,0000.47,0000.21,0000.10,0000.11,-000.00,0000.01,0000.16,-000.01,0000.05,19.9,26.1,08.9,06.1,0673.1,31.1
2021-09-03T05:29:00Z,00000200,00000000,0000.18,0000.36,0000.26,-000.12,-000.06,0000.05,-000.10,-000.18,0000.20,19.9,26.1,09.0,06.2,0673.1,31.1
2021-09-03T05:30:00Z,00000200,00000000,0000.52,0000.34,0000.16,0000.14,-000.02,0000.24,-000.04,0000.45,-000.50,19.9,26.1,08.9,06.1,0673.1,31.1
2021-09-03T05:31:00Z,00000200,00000000,0000.51,0000.15,-000.21,0000.22,0000.21,0000.12,0000.03,-000.25,0000.32,19.9,26.1,08.8,06.1,0673.1,31.1
2021-09-03T05:32:00Z,00000200,00000000,0001.08,0000.05,0000.42,0000.26,-000.13,0000.00,0000.28,-000.37,-000.08,19.9,26.1,08.8,06.1,0673.1,31.1
2021-09-03T05:33:00Z,00000200,00000000,-000.05,0000.41,0000.35,0000.20,0000.20,0000.34,0000.02,0000.25,0000.28,19.9,26.1,08.8,06.1,0673.1,31.1
2021-09-03T05:34:00Z,00000200,00000000,0000.46,0000.31,0000.47,-000.19,0000.03,0000.23,-000.25,0000.14,0000.15,19.9,26.1,08.8,06.0,0673.1,31.1
2021-09-03T05:35:00Z,00000200,00000000,0000.41,0000.49,0000.32,-000.18,0000.19,0000.28,0000.02,0000.03,-000.47,20.0,26.1,08.8,06.1,0673.1,31.1
2021-09-03T05:36:00Z,00000200,00000000,0000.03,0000.24,0000.10,0000.21,-000.31,-000.05,0000.09,0000.19,-000.08,19.9,26.1,08.8,06.1,0673.1,31.1
2021-09-03T05:37:00Z,00000200,00000000,0000.32,0000.78,0000.33,-000.55,0000.10,0000.37,0000.25,-000.23,0000.22,20.0,26.1,08.8,06.1,0673.1,31.1
2021-09-03T05:38:00Z,00000200,00000000,-000.54,0000.37,-000.25,-000.44,-000.11,0000.19,-000.33,0000.29,-000.15,19.9,26.1,08.8,06.0,0673.1,31.1
2021-09-03T05:39:00Z,00000200,00000000,0000.65,0000.30,0000.14,0000.43,-000.01,0000.47,0000.00,-000.29,0000.08,19.9,26.1,08.7,06.0,0673.1,31.1
2021-09-03T05:40:00Z,00000200,00000000,0000.51,0000.80,0000.07,-000.33,0000.03,-000.25,0000.26,-000.09,0000.05,19.9,26.1,08.8,06.0,0673.1,31.1
2021-09-03T05:41:00Z,00000200,00000000,-000.21,0000.12,0000.42,0000.48,0000.14,0000.08,-000.01,0000.19,-000.00,19.9,26.1,08.7,06.0,0673.1,31.1
2021-09-03T05:42:00Z,00000200,00000000,-000.49,0000.46,0000.06,0000.32,0000.23,0000.14,-000.33,-000.14,-000.10,19.9,26.1,08.7,06.0,0673.1,31.1
2021-09-03T05:43:00Z,00000200,00000000,0000.52,0000.49,0000.21,0000.79,-000.25,-000.03,0000.14,0000.07,0000.21,19.9,26.1,08.6,05.9,0673.1,31.1
2021-09-03T05:44:00Z,00000200,00000000,0000.37,0000.54,0000.03,0000.04,0000.03,0000.06,0000.13,0000.29,0000.10,19.9,26.1,08.7,06.0,0673.1,31.1
2021-09-03T05:45:00Z,00000200,00000000,0000.88,0000.43,-000.01,0000.25,0000.19,0000.35,-000.13,-000.33,-000.17,19.9,26.1,08.6,05.9,0673.1,31.1
2021-09-03T05:46:00Z,00000200,00000000,0000.12,0000.21,0000.11,-000.34,-000.04,0000.08,0000.00,-000.13,0000.10,19.9,26.1,08.7,06.0,0673.1,31.1
2021-09-03T05:47:00Z,00000200,00000000,-000.00,0000.01,0000.07,0000.08,-000.08,0000.03,-000.04,0000.15,-000.02,19.9,26.1,08.7,06.0,0673.1,31.1
2021-09-03T05:48:00Z,00000200,00000000,0000.03,0000.05,0000.16,0000.53,0000.16,-000.15,-000.08,-000.14,-000.13,20.0,26.1,08.6,05.9,0673.1,31.1
2021-09-03T05:49:00Z,00000200,00000000,0000.12,0000.87,0000.35,0000.19,-000.02,0000.54,0000.17,0000.32,-000.17,19.9,26.1,08.7,06.0,0673.1,31.1
2021-09-03T05:50:00Z,00000200,00000000,0000.24,0000.79,0000.18,-000.18,0000.20,0000.34,-000.03,-000.04,0000.13,20.0,26.1,08.8,06.0,0673.1,31.2
2021-09-03T05:51:00Z,00000200,00000000,0000.59,0000.24,-000.07,0000.32,0000.12,0000.05,0000.30,-000.05,0000.29,19.9,26.1,08.7,05.9,0673.1,31.1
2021-09-03T05:52:00Z,00000200,00000000,0000.24,0000.37,-000.06,0000.08,-000.12,0000.09,-000.16,-000.03,-000.16,19.9,26.1,08.7,06.0,0673.1,31.1
2021-09-03T05:53:00Z,00000200,00000000,0000.44,0000.12,0000.09,-000.04,-000.29,-000.08,0000.32,0000.10,0000.13,19.9,26.1,08.7,06.0,0673.1,31.1
2021-09-03T05:54:00Z,00000200,00000000,-000.31,0000.02,0000.12,0000.17,-000.21,0000.24,-000.43,-000.21,0000.13,19.9,26.1,08.8,06.0,0673.1,31.1
2021-09-03T05:55:00Z,00000200,00000000,0000.67,0000.37,0000.01,-000.28,0000.14,0000.09,0000.18,0000.27,-000.06,20.0,26.1,08.7,06.0,0673.0,31.1
2021-09-03T05:56:00Z,00000200,00000000,0000.27,0000.34,-000.13,-000.06,-000.33,0000.04,0000.06,0000.01,-000.35,20.0,26.1,08.8,06.0,0673.1,31.1
2021-09-03T05:57:00Z,00000200,40000000,,,,,,,-000.06,-000.05,0000.00,20.0,26.2,09.2,06.3,0673.0,31.1
2021-09-03T05:58:00Z,00000200,60000000,,,,,,,-000.14,-000.10,0000.29,19.8,26.2,08.7,05.9,0672.1,31.1
2021-09-03T05:59:00Z,00000200,20000000,,,,,,,-000.18,0000.08,-000.14,19.7,26.3,08.8,05.9,0672.1,31.1
